EHI
0 0 0 0 0 0 0 0 0 0 0 0 0 0 1 0 0 0 4 15 26 30 28 26 26 23 20 15 8 3 1 0 0 0 0 0 0 0 1 1 0 0 0 0 0 0 0 0 0
0 0 0 0 0 0 0 0 0 0 0 0 0 0 1 0 0 1 7 17 25 28 26 24 24 23 21 16 10 5 2 0 0 0 0 0 0 1 1 1 0 0 0 0 0 0 0 0 0
0 0 0 0 0 0 0 0 0 0 0 0 0 0 1 0 0 3 11 18 23 24 22 22 24 24 21 18 13 8 5 2 1 0 0 0 0 1 1 1 0 0 0 0 0 0 0 0 0
0 0 0 0 0 0 0 0 0 0 0 0 0 2 2 2 2 6 13 20 21 21 21 22 24 25 23 20 17 12 8 5 2 0 0 0 0 0 0 0 0 0 0 0 0 0 0 0 0
0 0 0 0 0 0 0 0 0 0 0 0 1 4 5 5 5 8 14 20 23 22 21 21 23 25 24 21 19 16 12 7 2 0 1 1 1 0 0 0 0 0 0 0 0 0 0 0 0
0 0 0 0 0 0 0 0 0 0 0 0 2 5 5 5 7 11 16 20 23 23 20 19 21 23 23 21 20 17 13 7 2 1 2 2 1 0 0 0 0 0 0 0 0 0 0 0 0
0 0 0 0 0 0 0 0 0 0 0 0 1 4 5 5 8 15 19 20 22 22 18 17 19 20 20 21 21 18 13 7 3 2 2 1 0 0 0 0 0 0 0 0 0 0 0 0 0
0 0 0 0 0 0 0 0 0 0 0 0 1 4 6 6 10 17 21 22 22 20 16 15 16 18 19 19 18 16 12 7 4 3 2 1 0 0 0 0 0 0 0 0 0 0 0 0 0
0 0 0 0 0 0 0 0 0 0 0 1 3 6 8 9 14 20 23 24 22 19 15 13 14 15 16 15 15 13 11 7 5 3 2 1 0 0 0 0 0 0 0 0 0 0 0 0 0
0 0 0 0 0 0 0 0 0 0 2 4 6 8 9 11 17 22 23 23 22 19 15 14 14 13 12 12 13 12 9 7 4 2 1 0 0 0 0 0 0 0 0 0 0 0 0 0 0
0 0 0 0 0 0 0 0 0 0 2 5 7 8 8 10 16 19 20 21 21 19 17 15 15 12 10 10 11 10 9 6 4 1 0 0 0 0 0 1 1 1 0 0 0 0 0 0 0
0 0 0 0 0 0 0 0 0 0 1 4 6 7 7 8 11 14 17 18 19 18 16 16 16 14 12 10 9 8 7 6 4 2 1 1 0 0 0 1 2 2 1 0 0 0 0 0 0
0 0 0 0 0 0 0 0 0 0 1 4 5 6 5 5 7 10 13 16 18 17 16 17 17 16 13 10 8 7 6 5 3 2 2 2 1 1 2 2 3 3 2 0 0 0 0 0 0
0 0 0 0 0 0 0 0 0 1 2 4 5 5 4 4 5 8 11 15 18 18 18 18 18 17 13 9 7 6 5 3 1 1 1 2 3 3 4 4 4 3 2 0 0 0 0 0 0
0 0 0 0 0 0 0 0 0 1 2 3 4 4 4 3 5 7 10 13 16 17 17 17 17 16 12 8 6 6 4 3 1 0 1 1 3 5 6 6 4 3 2 1 0 0 0 0 0
0 0 0 0 0 0 0 0 0 0 2 3 3 4 3 3 4 6 9 11 12 13 15 16 14 12 10 7 6 6 5 4 1 1 1 1 2 5 6 6 4 3 3 2 1 0 0 0 0
0 0 0 0 0 0 0 0 0 1 2 3 3 3 3 3 3 5 7 9 9 9 12 15 13 10 9 7 6 6 6 5 2 1 2 2 3 4 6 5 4 4 4 4 3 1 0 0 0
0 0 0 0 0 0 0 0 0 1 3 3 3 3 3 3 3 4 6 7 7 8 11 12 12 10 9 8 6 6 6 5 2 0 1 2 3 4 5 5 5 5 6 6 5 2 0 0 0
0 0 0 0 0 0 0 1 1 2 3 3 2 2 2 2 1 2 5 6 6 7 8 9 10 10 10 8 7 6 6 5 2 0 0 1 2 3 4 5 6 6 6 6 6 4 1 0 0
0 0 0 0 0 0 1 2 2 2 2 1 1 1 1 1 1 1 3 5 5 5 6 7 8 10 10 8 7 6 6 5 2 0 0 0 1 1 3 4 5 6 6 6 5 4 2 1 0
0 0 0 0 0 0 1 2 2 1 1 0 0 0 1 1 0 1 3 3 3 2 4 6 9 9 9 7 6 6 5 4 2 1 0 0 0 1 2 3 3 4 4 4 4 3 3 2 1
0 0 0 0 0 0 0 1 1 0 0 0 0 0 0 0 0 2 3 3 1 1 3 7 9 8 7 5 4 3 3 3 2 1 0 0 0 0 1 1 1 2 3 3 3 3 3 3 3
0 0 0 0 0 0 0 0 0 0 0 0 0 0 0 0 0 1 3 2 1 1 3 7 8 7 5 4 3 1 1 1 1 0 0 0 0 0 0 0 0 1 3 3 3 3 3 3 3
0 0 0 0 0 0 0 0 0 0 0 0 0 0 0 0 0 1 2 2 1 1 3 6 7 4 2 1 1 0 0 0 0 0 0 0 0 0 0 0 0 1 2 3 3 3 3 3 3
0 0 0 0 0 0 0 0 0 0 0 0 0 0 0 0 0 1 2 2 1 1 3 5 4 2 0 0 0 0 0 0 0 0 0 0 0 0 0 0 0 0 1 3 3 3 3 3 3
0 0 0 0 0 0 0 0 0 0 0 0 0 0 0 0 0 0 1 2 2 2 3 4 3 1 0 0 0 0 0 0 0 0 0 0 0 0 0 0 0 0 1 2 3 3 3 3 3
0 0 0 0 0 0 0 0 0 0 0 0 0 0 0 0 0 0 2 3 3 3 3 3 2 1 0 0 0 0 0 0 0 0 0 0 0 0 0 0 0 0 1 2 3 3 3 3 3
0 0 0 0 0 0 0 0 0 0 0 0 0 0 0 0 0 0 1 2 3 3 3 3 2 1 0 0 0 0 0 0 0 0 0 0 0 0 0 0 0 0 0 1 3 3 3 3 3
0 0 0 0 0 0 0 0 0 0 0 0 0 0 0 0 0 0 0 1 1 2 2 1 1 0 0 0 0 0 0 0 0 0 0 0 0 0 0 0 0 0 0 1 2 3 3 3 3
0 0 0 0 0 0 0 0 0 0 0 0 0 0 0 0 0 0 0 0 0 1 1 0 0 0 0 0 0 0 0 0 0 0 0 0 0 0 0 0 0 0 0 1 2 3 3 3 2
Wind_Speed
11 11 7 2 3 5 9 7 5 3 2 0 2 2 3 5 4 7 5 9 13 13 13 12 13 13 12 12 12 11 11 11 11 11 11 11 11 12 12 13 13 13 13 13 14 14 14 14 14
10 9 4 3 4 7 7 8 7 4 1 1 1 0 2 6 7 7 6 10 12 13 12 11 13 12 12 12 12 11 11 11 11 11 11 11 11 12 12 12 12 13 13 13 13 13 13 13 12
10 8 4 4 6 8 6 5 5 3 2 2 1 2 3 4 6 5 7 11 11 11 11 12 12 12 12 12 12 11 11 11 11 10 10 10 11 11 11 12 12 12 12 12 12 12 12 12 11
5 3 4 6 12 9 7 4 2 3 3 2 2 4 4 4 3 6 9 10 11 11 12 12 12 13 12 12 11 11 11 10 10 10 10 10 10 11 11 11 11 11 11 11 11 11 11 11 10
3 4 6 9 14 10 7 5 3 2 3 3 2 4 4 4 7 9 8 9 10 11 11 12 12 12 12 12 11 11 10 10 10 9 9 10 10 10 10 10 10 10 11 11 11 10 10 10 9
3 4 7 11 12 9 7 5 3 3 2 3 3 3 3 4 6 7 7 7 9 11 11 11 12 12 11 11 11 10 10 10 9 9 9 9 10 10 10 9 9 10 10 10 10 10 9 9 8
3 4 9 11 10 9 7 4 3 3 2 2 1 3 5 4 4 5 6 7 8 10 10 9 8 9 10 10 10 9 9 9 9 9 8 8 9 9 9 9 9 9 9 9 9 9 8 8 7
3 4 9 11 10 8 4 2 2 2 3 1 1 3 5 5 4 5 5 7 8 8 8 8 7 7 7 7 9 9 9 9 8 8 8 7 7 8 8 7 8 8 9 8 8 8 7 6 5
4 5 10 10 8 5 3 3 2 2 1 1 2 4 6 7 5 5 5 5 6 7 6 6 6 6 6 6 8 8 8 8 8 7 8 6 4 5 5 7 8 8 8 8 8 7 6 5 3
4 7 10 6 5 5 4 3 3 2 1 0 3 7 8 7 6 5 6 6 6 6 6 5 5 5 5 5 6 4 5 5 5 4 5 4 3 3 5 7 7 7 7 7 6 6 5 3 2
6 8 7 6 4 5 4 4 3 3 3 1 3 6 5 5 5 5 5 5 5 5 5 5 5 5 4 3 4 3 3 3 4 4 4 3 3 3 4 3 3 4 5 3 4 4 3 2 2
7 8 8 6 4 4 5 4 3 4 4 1 3 5 6 6 6 5 5 5 5 4 4 4 4 4 4 3 2 3 3 3 3 4 4 3 3 3 3 3 3 3 2 2 2 2 2 2 2
10 8 8 7 5 4 5 5 5 5 3 1 3 4 5 4 4 4 4 4 5 4 4 4 4 4 3 3 2 2 2 2 3 3 3 3 3 3 2 2 3 3 2 2 2 1 1 1 1
6 6 7 7 6 4 4 6 5 4 2 1 3 3 4 3 4 4 3 4 4 4 4 4 4 4 4 3 2 1 1 2 2 2 2 3 2 3 2 2 2 2 2 2 1 1 1 0 0
6 6 8 8 7 5 3 6 7 4 3 3 3 3 4 3 3 3 3 3 4 4 4 4 3 4 4 3 2 2 1 2 2 2 2 2 2 3 2 2 2 2 2 2 1 1 1 1 1
6 7 7 7 7 6 5 7 5 4 4 4 3 3 3 3 3 3 2 2 3 3 4 4 3 3 4 3 2 1 1 2 1 1 1 1 2 2 2 2 2 2 2 2 1 1 1 1 0
5 7 7 5 7 6 6 6 5 5 5 4 3 3 3 3 3 2 2 2 2 3 4 4 4 3 4 3 2 2 2 2 1 1 1 1 1 2 2 2 2 2 2 2 1 1 1 1 0
5 5 6 6 5 5 5 5 4 4 5 4 4 4 3 3 2 2 2 2 2 3 3 4 4 3 3 3 2 2 2 1 1 1 1 1 1 1 2 2 2 2 2 1 1 2 1 1 1
5 7 8 6 3 4 6 5 5 4 4 4 3 4 3 3 2 2 2 2 2 3 3 4 3 3 3 2 2 2 2 1 1 1 1 1 1 1 2 2 2 2 2 3 3 2 2 1 1
7 7 6 5 3 3 4 5 5 4 4 4 4 3 3 2 2 2 2 2 2 2 2 3 3 3 2 2 2 2 2 1 1 1 1 1 1 1 2 2 2 2 2 2 2 2 2 1 1
7 5 5 4 3 5 3 4 5 5 4 4 4 4 2 2 3 3 3 2 2 2 2 2 3 3 3 3 2 2 1 1 1 0 0 0 0 1 1 2 2 2 2 2 3 2 3 2 2
5 4 3 3 2 3 3 3 4 6 6 5 5 4 4 2 2 2 3 3 3 1 1 3 3 3 3 3 3 3 2 2 1 1 1 0 0 1 1 1 2 2 2 2 3 3 2 3 2
4 4 4 4 3 3 3 3 4 5 5 5 5 4 3 3 2 2 3 3 3 2 2 2 3 2 2 3 3 3 2 1 1 1 1 0 0 1 1 1 1 2 2 2 2 2 2 2 2
5 4 4 3 2 3 5 3 3 4 5 4 4 4 4 3 3 2 2 3 2 2 2 2 2 2 2 2 2 2 2 2 2 2 2 2 1 1 1 1 1 2 2 2 2 3 3 2 2
3 1 0 1 3 4 2 2 3 4 3 4 4 4 3 3 3 2 2 2 2 2 2 2 3 2 2 2 2 1 2 2 3 3 3 2 1 1 2 1 1 2 2 3 2 2 2 2 3
3 2 1 2 2 1 1 3 2 3 4 3 4 4 4 2 2 2 2 2 2 2 2 2 2 2 1 2 1 1 2 1 1 1 2 2 2 2 2 2 2 2 2 2 2 2 2 2 2
2 2 3 2 2 1 3 2 1 2 3 2 3 4 3 3 2 3 2 2 2 1 1 2 2 2 1 1 1 1 1 1 1 1 1 1 1 1 2 2 2 2 2 2 2 2 2 2 2
2 2 1 1 1 1 2 3 3 2 3 2 3 4 3 2 2 3 2 2 2 1 0 1 1 1 1 1 1 0 1 1 1 1 1 1 2 1 2 2 2 2 2 2 2 2 2 2 2
1 1 2 2 1 1 2 2 1 3 3 2 2 2 3 3 2 2 1 1 1 1 1 0 1 1 1 1 0 0 1 1 1 1 1 1 1 2 2 2 2 2 2 2 2 2 2 3 2
1 2 1 1 3 2 2 2 1 3 2 2 2 1 2 2 2 1 1 1 1 1 0 1 1 1 0 0 0 0 1 1 1 1 1 1 1 1 1 2 2 2 2 2 3 3 3 3 3
Wind_Direction
299 278 256 248 234 230 238 238 246 230 223 320 0 4 22 34 47 109 137 119 120 126 132 136 133 132 131 128 124 121 117 113 111 108 106 107 107 106 104 101 98 95 93 91 91 90 89 87 86
290 279 257 234 230 225 231 224 237 231 143 82 15 346 64 65 69 105 121 119 122 126 132 134 132 131 131 131 128 126 122 119 115 111 109 108 108 107 105 103 100 98 96 93 92 90 91 90 88
274 264 246 228 228 227 228 210 205 182 142 116 95 30 47 74 93 113 116 122 121 125 128 128 132 131 131 132 131 128 127 124 119 115 113 110 107 107 108 105 103 101 99 97 95 93 92 92 90
269 236 240 239 237 233 241 244 187 157 156 140 129 92 69 64 85 110 118 125 125 124 123 130 131 133 133 133 131 130 129 127 123 119 116 114 109 106 106 108 107 106 104 101 98 97 95 93 92
250 236 223 232 240 240 249 268 249 195 170 161 167 114 90 62 82 105 123 126 126 122 124 134 134 134 135 135 134 132 130 128 125 120 119 118 114 111 108 108 110 110 109 107 104 101 99 96 93
242 235 225 229 234 234 236 257 267 233 187 181 173 129 114 103 96 115 122 121 120 120 122 132 133 133 133 133 133 133 131 130 127 125 123 122 119 117 115 114 116 114 113 111 109 106 102 100 96
245 244 238 240 238 233 230 229 227 255 213 192 206 127 134 116 101 113 121 119 115 117 122 132 136 135 134 134 135 135 135 134 131 129 127 127 125 125 122 121 120 121 119 116 113 111 109 106 99
266 262 242 240 242 238 241 253 229 247 245 213 144 128 142 126 111 113 113 114 112 114 123 135 140 139 139 138 139 137 137 138 137 134 134 135 133 133 133 128 125 126 125 123 120 117 116 114 106
263 244 236 232 244 250 255 272 288 315 290 318 35 73 105 116 115 107 101 97 109 116 122 132 137 140 141 145 141 139 139 140 138 137 141 143 145 144 140 135 133 132 130 130 130 131 131 126 127
222 232 235 246 262 273 273 278 304 293 289 247 62 72 98 114 122 127 129 128 127 129 133 137 137 132 139 148 143 150 150 152 153 151 155 162 150 131 122 129 137 137 135 137 144 149 149 153 174
227 238 244 258 279 285 278 277 300 279 259 235 125 121 119 131 138 145 143 141 134 138 128 127 128 130 131 136 150 149 150 157 155 160 163 142 123 120 121 125 130 140 146 151 161 172 189 182 171
246 245 251 259 276 287 276 268 258 265 273 236 133 139 149 160 160 161 156 144 139 134 128 125 123 122 123 125 148 151 152 156 159 165 160 141 138 140 150 153 163 166 164 167 183 193 180 175 174
244 244 249 263 266 270 288 268 253 267 290 270 126 137 159 162 161 161 158 149 144 134 130 125 118 121 120 118 126 136 148 152 149 153 155 143 144 147 153 155 163 169 154 168 187 176 160 161 148
243 250 257 258 247 248 257 278 269 249 248 210 162 158 156 159 159 151 149 151 144 140 136 128 127 125 120 112 114 118 129 131 128 135 140 142 144 141 145 142 150 148 148 173 168 151 123 127 88
252 249 251 249 237 224 233 266 251 248 218 212 185 174 158 146 137 135 141 153 150 145 133 129 132 125 122 117 117 111 118 119 123 130 131 135 133 140 141 134 144 149 145 138 113 110 97 82 53
234 232 233 236 229 220 211 239 240 233 216 215 186 180 153 128 111 102 96 130 139 142 139 144 140 132 127 119 114 107 117 113 117 107 114 122 123 136 137 132 151 147 130 124 120 119 115 112 83
212 222 226 234 222 214 221 230 234 233 208 205 182 171 155 134 118 101 95 88 142 145 142 147 139 137 132 123 122 118 113 110 107 107 103 116 124 129 136 146 150 135 128 138 148 138 133 138 160
209 219 225 234 222 213 220 233 233 231 186 189 180 166 163 147 131 121 117 110 123 140 137 140 139 133 131 127 124 112 95 91 85 95 124 127 126 136 130 142 153 141 135 143 142 141 132 144 158
248 236 237 250 259 241 223 234 237 224 182 180 178 163 166 170 143 123 102 95 95 128 134 138 138 131 128 136 140 138 139 124 99 91 112 140 148 148 148 151 147 143 160 173 166 152 150 147 126
252 244 242 252 265 246 226 242 240 214 182 176 175 161 166 168 143 133 115 102 96 115 138 139 142 141 140 140 147 153 146 157 148 140 123 130 156 169 162 156 157 157 161 162 158 145 152 171 164
255 246 245 247 276 243 224 252 217 193 177 184 175 159 165 183 164 149 143 134 112 93 148 151 149 149 149 139 128 127 119 107 93 139 137 161 159 146 146 158 158 160 160 171 174 165 161 181 217
256 256 253 241 230 246 220 235 222 190 186 187 177 164 163 186 181 154 147 137 126 113 139 139 137 136 145 152 156 165 163 167 200 173 163 183 146 118 138 154 166 168 173 179 183 176 170 161 197
264 275 261 244 235 273 240 219 235 178 193 190 176 164 166 180 177 154 142 139 130 120 128 145 138 135 146 152 156 160 153 163 153 145 147 205 213 149 150 171 176 174 167 180 183 178 174 168 177
281 275 273 243 197 242 228 203 227 194 196 178 168 168 177 177 168 161 132 127 120 115 128 145 143 146 154 157 156 165 170 169 163 167 179 200 210 181 185 190 193 188 175 182 196 182 179 187 183
322 322 24 215 209 234 193 193 229 186 178 175 172 168 166 164 149 140 123 127 140 134 141 159 155 150 161 166 175 181 188 187 188 190 190 197 203 203 206 200 205 208 194 187 188 185 187 183 182
264 243 217 224 217 253 192 212 229 148 138 140 141 137 120 114 118 111 101 105 125 126 142 153 160 158 166 171 185 194 195 194 210 210 200 205 207 217 200 201 204 218 208 190 181 186 192 180 189
260 242 286 288 265 235 221 213 199 84 98 131 137 133 131 126 106 87 70 59 56 83 137 158 157 158 172 169 161 200 209 191 204 225 221 205 200 209 196 206 203 209 207 190 173 179 192 190 202
278 277 293 258 260 235 226 217 210 187 184 150 159 160 155 140 100 81 73 64 42 40 50 132 163 165 170 157 168 236 231 216 199 207 208 198 192 195 186 198 204 196 194 190 172 180 197 203 207
274 268 281 269 254 243 242 245 21 175 172 162 151 144 145 136 124 118 90 71 64 42 37 136 161 165 171 182 177 201 242 235 201 203 210 201 197 189 190 204 206 197 193 187 182 195 200 207 212
226 235 227 224 266 251 248 261 21 76 112 119 118 102 106 122 125 123 99 64 47 68 49 69 118 143 145 104 116 216 258 220 191 193 202 187 191 191 192 204 210 209 208 197 188 201 208 209 219